Regional Weather Roundup
Issued by NWS Cleveland, OH

Home | Current Version | Previous Version | Graphics & Text | Print | Product List | Glossary On
Versions: 1 2 3 4 5 6 7 8 9 10 11 12 13 14 15 16 17 18 19 20 21 22 23 24 25 26 27 28 29 30 31 32 33 34 35 36 37 38 39 40 41 42 43 44 45 46 47 48 49 50
000
ASUS41 KCLE 062310
RWRCLE
OHIO REGIONAL WEATHER ROUNDUP
NATIONAL WEATHER SERVICE CLEVELAND, OH
700 PM EDT WED MAY 06 2015

NOTE: "FAIR" INDICATES FEW OR NO CLOUDS BELOW 12,000 FEET WITH NO
SIGNIFICANT WEATHER AND/OR OBSTRUCTIONS TO VISIBILITY.

OHZ001>008-015>018-024>027-034-035-043-044-070000-
   NORTHWEST OHIO

CITY           SKY/WX    TMP DP  RH WIND       PRES   REMARKS
DEFIANCE       SUNNY     75  61  61 NE8       30.14F
FINDLAY        SUNNY     77  59  53 NE7       30.13F
TOLEDO EXPRESS SUNNY     67  57  70 E9        30.16F
TOLEDO EXEC    SUNNY     65  55  70 NE8       30.17F
LIMA           SUNNY     78  58  49 NE8       30.13F
$$

OHZ009>014-019>023-028>033-038-089-070000-
   NORTHEAST OHIO

CITY           SKY/WX    TMP DP  RH WIND       PRES   REMARKS
CLE-HOPKINS    MOSUNNY   66  56  70 N7        30.19F
CLE-LAKEFRONT  FOG       52  50  93 CALM      30.17F VSB 1/4
CUY CO. ARPT   MOSUNNY   70  59  68 N7        30.18F
LORAIN-ELYRIA  SUNNY     69  56  62 E10       30.17F
ASHTABULA      SUNNY     68  57  68 N6        30.18F
AKRON-CANTON   MOSUNNY   77  58  51 N12       30.15S
WOOSTER        SUNNY     76  59  55 N12       30.15S
MANSFIELD      SUNNY     77  59  53 N10       30.15F
YOUNGSTOWN     MOSUNNY   74  58  57 N9        30.16S
$$

OHZ042-051>053-060>062-070>072-077>081-070000-
  SOUTHWEST OHIO

CITY           SKY/WX    TMP DP  RH WIND       PRES   REMARKS
CINC-COVINGTON MOSUNNY   85  55  35 NW5       30.10F
CINC-LUNKEN    MOSUNNY   80  57  45 VRB5      30.09F
HAMILTON       SUNNY     84  55  36 N6        30.11F
DAYTON         MOSUNNY   82  57  42 N6        30.13F
WRIGHT-PAT AFB MOSUNNY   82  56  42 N9        30.11F
DAYTON GENERAL SUNNY     83  51  33 VRB3      30.11F
WILMINGTON     SUNNY     83  50  31 NW5       30.11F
$$

OHZ036-037-039>041-045>050-054>059-063>069-073>076-082>088-070000-
  CENTRAL AND SOUTHEAST OHIO

CITY           SKY/WX    TMP DP  RH WIND       PRES   REMARKS
COLUMBUS       MOSUNNY   81  54  39 N7        30.10F
OSU AIRPORT    MOSUNNY   80  54  40 N7        30.11F
BOLTON FIELD   SUNNY     81  57  44 N6        30.12F
RICKENBACK AFB SUNNY     81  55  41 N9        30.10F
NEWARK         PTSUNNY   80  57  45 NW8       30.11F
MARION         SUNNY     79  56  45 N8        30.14S
LANCASTER      SUNNY     84  53  34 N7        30.11F
ZANESVILLE     SUNNY     80  54  40 NE8       30.11F
NEW PHILLY     MOSUNNY   82  58  43 CALM      30.13F
$$



USA.gov is the U.S. government's official web portal to all federal, state and local government web resources and services.